RH
8 6 4 5 10 18 23 33 38 41 43 54 38 30 44 52 47 29 34 43 46 47 51 52 45 39 38 34 24 16 16 16 12 10 7 4 6 32 75 89 98 100 98 95
10 7 6 6 14 17 11 21 28 34 38 49 50 38 41 45 40 30 50 59 50 50 49 61 67 50 46 39 33 25 16 17 14 12 10 7 4 8 30 51 100 100 99 100
8 7 7 7 12 9 11 23 21 31 44 62 76 45 41 39 37 34 38 44 62 71 50 38 53 64 48 42 41 36 28 22 15 14 12 9 6 4 9 34 97 99 100 99
10 8 9 8 11 14 16 13 24 46 78 76 66 83 43 43 39 40 47 60 61 52 38 31 54 59 56 44 40 38 35 30 26 15 13 10 8 5 5 11 52 99 100 100
9 12 11 10 12 18 24 15 29 42 76 74 74 74 49 34 38 38 44 48 48 33 35 34 63 62 54 50 43 39 35 32 32 25 15 13 9 8 5 6 10 88 100 100
11 17 18 13 13 19 26 10 45 55 65 94 73 49 39 44 41 39 42 44 38 42 29 51 69 63 56 54 50 45 42 36 33 32 22 15 11 9 6 4 7 20 100 100
12 18 20 13 16 29 18 23 75 60 86 78 49 51 43 56 51 40 41 45 41 45 37 76 72 69 66 57 52 50 49 46 40 35 29 19 12 10 8 5 5 14 73 100
14 19 14 17 22 28 34 67 75 97 74 63 57 59 40 42 44 47 50 54 51 34 80 77 79 77 73 69 60 56 55 53 50 39 34 24 14 10 9 6 5 7 18 97
15 17 15 19 30 34 36 60 66 100 78 98 51 42 42 44 50 56 36 32 38 76 78 88 92 84 77 79 77 70 64 62 59 48 37 28 16 11 9 7 6 6 14 65
15 18 17 20 37 44 46 64 67 78 100 94 44 37 38 46 37 30 48 42 75 85 88 90 84 82 80 77 76 77 74 64 63 57 42 30 18 11 10 8 6 6 14 26
13 19 19 28 39 47 47 65 58 72 80 98 95 58 56 35 37 47 41 64 85 82 77 77 75 79 82 84 82 76 75 65 60 60 49 33 18 12 11 8 6 6 13 20
15 17 23 25 40 47 58 62 86 95 80 85 82 68 45 39 37 41 53 76 82 78 76 75 77 80 83 85 80 81 80 69 65 58 51 35 18 12 11 9 6 7 13 15
12 24 25 26 32 36 55 72 93 100 100 93 92 56 26 30 45 57 63 80 77 73 76 74 87 94 93 99 90 83 82 85 74 58 50 36 16 11 11 9 6 9 27 13
12 15 17 16 17 32 40 47 77 100 99 66 54 40 24 43 61 57 67 81 76 85 86 94 100 100 100 100 92 88 86 79 74 60 49 35 15 10 11 10 6 14 77 42
15 20 21 16 19 27 30 32 29 47 28 80 33 50 37 60 74 63 83 89 77 82 99 100 97 94 99 100 93 92 91 84 76 61 49 34 19 13 11 9 6 34 91 84
16 22 21 12 18 39 37 28 21 21 24 36 50 59 60 71 70 61 96 81 88 98 98 87 95 96 98 99 91 92 93 89 74 62 50 36 22 15 11 8 7 100 100 97
16 18 23 19 17 28 48 19 22 21 19 44 55 48 68 76 61 60 88 90 97 97 97 97 98 94 95 96 92 96 98 92 69 63 50 34 25 14 11 7 17 100 100 71
13 16 34 27 26 52 19 16 21 13 13 39 39 49 62 74 53 54 92 98 96 97 97 96 97 96 98 98 99 97 96 80 64 54 43 33 22 15 11 6 49 100 100 99
18 18 26 38 59 19 24 20 15 13 7 31 24 37 51 61 57 46 80 98 98 98 98 99 97 96 100 94 78 79 66 69 59 47 39 30 18 14 10 6 8 100 98 89
36 24 28 37 69 66 18 13 10 9 17 12 28 33 47 51 55 41 58 92 95 96 97 97 96 97 97 98 99 79 45 62 54 37 36 29 18 14 10 6 5 15 54 81
32 28 28 30 69 20 14 11 6 12 8 15 23 33 51 64 63 53 62 74 98 97 96 96 97 96 96 98 96 100 47 50 52 43 42 31 17 12 10 7 6 68 95 88
43 30 19 32 42 38 10 6 7 6 5 10 16 30 43 58 48 42 55 66 92 94 94 96 96 96 98 97 98 87 93 50 45 45 38 28 16 12 10 9 18 55 99 100
50 49 49 39 25 15 6 4 4 4 4 5 9 18 33 43 46 36 43 55 77 95 96 97 97 97 98 78 68 97 92 56 38 31 31 22 14 12 11 14 58 86 100 100
61 59 54 50 26 15 5 4 3 3 3 4 6 11 24 31 43 34 34 46 62 88 95 96 96 95 99 80 45 35 28 24 27 29 22 16 14 12 12 95 100 100 100 100
61 60 50 41 28 8 6 2 2 2 3 3 4 6 14 26 36 30 30 34 51 65 95 96 96 96 96 98 95 74 22 12 14 13 10 11 19 34 77 99 98 98 98 97
57 59 51 35 16 6 3 2 2 2 3 3 3 4 6 14 20 27 22 25 39 54 79 95 98 97 100 99 98 99 100 79 67 10 16 73 95 98 98 98 100 100 100 99
Wind_Speed
20 27 32 33 31 29 31 32 35 27 23 17 28 39 16 6 20 11 6 11 17 24 28 29 30 29 30 29 33 36 37 34 33 36 39 41 50 62 65 75 42 53 63 42
21 25 28 31 31 32 33 29 32 23 21 38 28 21 16 12 16 7 3 10 20 27 39 36 38 37 35 29 29 32 36 33 35 34 37 40 43 51 58 55 48 42 61 57
13 23 26 31 32 39 31 25 35 39 37 20 14 11 5 7 12 10 11 17 16 16 36 46 45 47 36 31 27 30 34 31 35 35 36 39 41 43 55 58 70 48 55 53
15 26 26 29 34 36 28 38 42 32 24 7 16 7 8 13 11 11 11 8 17 27 42 52 49 47 46 37 29 31 33 32 33 35 36 38 40 40 43 50 62 55 46 52
23 21 21 28 37 31 30 47 25 15 17 14 2 5 6 11 9 6 10 18 23 32 53 53 51 49 48 46 41 35 35 36 32 35 37 37 40 39 41 46 41 61 42 48
23 21 19 26 36 26 35 47 10 11 3 3 6 5 10 11 13 18 19 21 29 38 60 53 52 51 49 46 43 39 38 37 35 36 38 40 38 39 42 47 41 51 57 39
22 21 25 31 38 17 34 44 10 9 3 4 6 16 11 10 16 20 23 28 37 55 61 56 55 52 52 49 45 38 38 37 38 38 40 41 39 41 42 45 43 46 63 44
19 13 23 28 31 24 25 20 5 4 5 11 25 8 6 9 15 13 21 30 39 63 56 53 49 51 52 51 48 44 40 39 37 41 42 43 41 43 43 45 41 43 51 49
14 11 21 28 25 21 16 15 9 8 11 12 8 11 16 9 6 16 37 55 60 54 52 48 48 50 50 49 47 46 44 40 39 39 42 45 46 45 46 45 43 44 50 66
18 13 14 31 20 23 20 18 7 5 5 6 7 14 10 13 24 40 57 58 55 57 53 51 53 53 51 49 49 46 45 41 38 37 41 48 48 48 49 48 44 41 46 48
24 15 15 20 15 20 15 11 7 8 6 2 5 10 10 22 33 57 58 57 61 57 54 54 54 54 53 50 46 46 44 39 36 37 39 49 52 51 52 50 46 41 47 53
20 11 23 21 17 15 14 15 15 1 2 12 14 17 6 28 49 57 61 61 59 54 55 55 54 56 54 52 48 46 41 38 35 35 38 50 55 54 55 51 47 44 48 53
20 14 16 13 11 16 22 24 22 17 14 17 5 16 44 50 55 59 62 61 57 57 58 57 58 55 53 51 48 41 42 35 33 35 38 51 57 57 56 53 48 48 52 52
19 14 16 16 29 28 35 30 31 28 16 22 33 55 54 54 61 64 61 57 60 62 61 60 56 51 46 43 41 37 39 33 32 36 39 50 60 59 58 55 50 55 62 56
22 21 23 35 34 24 26 24 19 27 32 31 51 47 48 52 62 61 60 62 65 65 66 58 51 44 40 35 33 32 34 27 31 39 42 49 64 62 61 59 52 60 63 58
26 18 31 44 20 28 28 18 20 23 29 39 40 48 38 54 58 59 59 60 65 69 63 56 49 39 33 26 27 27 26 23 31 39 42 54 64 63 64 63 56 72 69 63
21 23 29 13 29 25 16 18 23 30 44 34 39 42 53 57 59 58 58 61 65 63 61 52 41 34 27 23 24 20 17 21 31 35 41 58 61 64 68 64 59 75 67 59
20 22 17 21 23 5 24 31 29 45 46 27 35 52 55 56 54 52 58 61 62 64 62 48 34 25 19 22 21 15 4 18 24 30 42 55 60 65 70 65 63 74 69 61
17 19 14 9 17 26 16 22 38 50 45 23 54 55 52 55 59 56 57 58 62 62 60 45 29 19 13 17 15 10 5 12 20 30 41 55 59 62 69 66 65 76 70 62
17 19 14 9 6 5 17 30 43 41 21 46 51 52 53 58 66 65 63 64 64 60 59 47 25 15 12 12 13 7 7 16 22 30 42 55 58 59 68 64 63 67 73 65
23 18 15 17 11 17 21 32 40 22 30 49 48 49 50 52 50 58 62 63 62 63 63 51 26 13 13 12 10 11 4 18 25 32 43 53 57 59 65 61 60 69 73 67
16 12 9 7 10 11 32 39 36 41 42 44 46 47 50 50 52 54 56 61 64 65 62 56 34 17 12 9 7 11 7 16 28 34 42 47 54 59 60 57 57 70 71 64
13 19 20 15 23 32 32 38 35 37 39 42 45 46 49 51 52 53 56 58 62 65 63 59 47 29 21 14 9 2 8 13 26 33 39 45 52 55 54 53 60 63 69 63
35 33 32 32 25 30 30 31 33 35 37 38 41 45 45 48 51 53 54 57 61 63 62 61 54 33 23 27 18 13 19 20 19 28 37 42 43 47 46 60 58 61 59 57
41 37 35 36 29 25 29 31 32 32 36 38 36 41 44 48 51 53 54 55 57 61 62 60 59 52 30 23 22 21 15 18 22 32 40 41 45 50 53 53 50 44 38 34
37 33 30 31 22 23 30 30 31 32 35 37 41 42 43 47 49 51 50 51 53 55 59 55 53 50 38 31 23 15 12 13 18 40 44 60 54 41 37 47 45 40 36 33
Wind_Direction
7 6 6 2 360 355 342 321 314 325 311 295 296 301 311 293 265 268 314 343 333 336 333 327 313 310 307 296 289 281 278 271 261 252 246 243 241 238 227 217 214 207 211 205
1 2 2 358 0 345 339 327 332 326 303 316 318 315 292 249 244 247 305 271 324 340 342 330 319 324 318 307 291 283 280 275 263 258 247 242 240 238 238 240 220 213 220 224
11 356 359 358 355 344 355 340 325 314 328 337 306 338 321 246 212 241 283 307 334 310 326 326 323 322 316 310 300 285 278 273 265 258 252 242 240 238 238 240 226 210 206 208
359 350 353 355 353 347 348 342 331 322 326 315 317 291 297 243 237 285 309 293 274 310 326 322 321 317 315 310 299 286 278 270 265 258 253 244 237 234 237 239 234 217 211 198
352 347 352 359 355 351 340 346 333 322 298 297 118 263 317 214 238 234 246 268 290 312 325 322 318 315 312 309 304 293 279 268 259 256 251 245 235 230 229 233 232 226 211 212
355 354 352 353 360 350 347 354 358 337 334 262 183 343 290 235 223 222 253 276 292 309 326 319 316 312 308 303 299 292 282 270 258 251 247 243 234 226 225 229 230 229 211 206
358 343 343 352 352 357 356 9 351 6 328 260 15 314 256 285 280 284 291 289 300 320 321 319 317 313 309 304 299 292 283 273 262 247 241 239 230 222 221 224 226 223 224 202
349 331 339 340 350 355 12 10 56 293 320 295 308 230 314 317 290 298 285 293 302 315 319 319 316 311 307 302 298 294 287 277 264 249 235 230 227 220 215 217 219 220 221 205
341 322 328 341 344 360 353 13 359 275 286 271 265 286 275 264 284 296 309 314 316 319 320 322 314 307 302 297 293 289 284 278 266 249 233 223 221 216 210 213 211 213 215 219
340 318 328 338 339 349 355 359 16 341 328 304 283 309 255 281 307 316 321 322 326 328 330 324 317 312 305 298 291 284 280 274 264 249 231 218 214 213 206 208 207 204 208 211
341 334 326 338 328 322 336 330 347 303 239 235 301 280 270 303 323 323 324 333 333 332 328 323 318 314 309 300 292 282 276 270 257 247 224 212 208 208 204 203 203 198 200 208
339 313 316 318 316 311 319 328 324 302 264 268 279 275 318 324 320 325 334 337 333 330 330 325 320 315 311 305 298 292 277 265 250 240 218 208 202 203 202 197 197 193 195 206
338 329 324 322 333 326 319 322 310 302 291 259 251 270 312 319 324 334 337 335 333 334 333 330 322 320 310 303 300 293 285 265 245 231 214 203 198 199 199 193 191 190 188 202
330 308 303 267 300 296 291 293 292 287 273 274 262 298 322 327 333 337 338 337 338 342 337 335 327 315 308 302 298 291 283 269 240 222 208 200 195 197 195 188 187 188 182 193
324 311 314 319 318 305 299 294 279 272 296 272 301 298 329 330 332 334 337 341 343 341 344 333 325 321 312 305 298 293 284 262 231 213 202 198 195 194 191 184 184 185 179 189
322 313 319 326 333 332 320 306 294 299 310 302 306 306 329 332 333 338 340 344 344 346 340 336 330 323 313 306 303 296 284 255 217 203 199 196 195 191 187 180 183 175 176 184
310 319 329 299 331 316 305 337 324 320 327 323 311 331 337 337 338 342 340 350 346 345 346 343 333 324 315 313 311 307 281 223 203 196 196 192 191 187 183 178 182 181 182 183
307 318 319 300 339 332 325 319 327 329 341 334 335 339 338 335 334 346 353 344 348 351 353 347 337 326 311 308 309 311 221 190 193 190 191 189 184 186 183 176 181 179 178 181
314 316 316 293 305 300 307 336 334 335 344 340 344 337 335 336 339 358 352 351 355 357 357 354 341 340 336 328 320 310 244 202 189 187 188 184 183 187 181 175 179 183 182 183
314 310 292 288 287 269 310 327 334 332 327 339 332 334 339 345 346 350 353 359 358 1 4 2 350 10 1 357 346 335 221 205 190 187 187 182 185 188 180 175 180 187 186 187
312 300 281 284 264 289 314 333 333 340 326 329 331 336 340 344 346 345 353 357 359 3 7 11 7 14 13 9 19 29 85 187 186 182 183 183 188 188 180 178 180 182 180 182
297 294 290 292 260 297 325 324 328 324 332 332 335 339 338 343 349 354 355 358 358 6 11 17 21 26 39 57 43 84 74 166 179 179 183 187 189 187 181 179 179 182 180 183
291 292 287 276 279 307 316 324 326 329 336 339 339 341 341 343 350 357 358 360 0 7 13 18 26 40 45 50 62 77 122 144 170 182 185 190 188 184 182 176 174 175 177 180
303 307 294 302 317 313 313 324 329 334 340 345 343 342 341 343 350 358 1 360 1 7 13 19 30 29 36 42 47 88 109 121 149 180 186 187 187 183 174 170 174 170 175 179
306 303 305 304 316 309 320 327 334 341 343 344 349 345 344 346 350 359 2 359 4 4 10 21 27 39 36 34 61 65 92 115 145 169 176 176 164 156 156 163 168 170 176 177
315 314 303 303 311 313 324 329 336 341 345 347 349 350 351 348 351 356 3 360 2 3 8 17 29 39 41 42 53 82 110 135 171 183 185 159 152 158 164 168 160 147 147 155